CYGFM05 (41884 NORAD) Tracking and Keplerian Element Data

This shows tracking and keplerian element data for the satellite.

Feedback or suggestion? Click here.




ElementValue
Catalog41884
NameCYGFM05
Epoch Orbit26474
Epoch Day269.69133708
Epoch Year2021
RAAN42.7485
Inclination34.9573
Eccentricity0.0016301
Argument of Perigee252.6748
Mean Anonmoly107.218
Mean Motion15.15161388
Decay Rate1.192E-05
L11 41884U 16078A 21269.69133708 .00001192 00000-0 63621-4 0 9999
L22 41884 34.9573 42.7485 0016301 252.6748 107.2180 15.15161388264744

Live tracking and technical data element details for CYGFM05 (NORAD 41884). CYGFM05 can be tracked NOW for your location showing map with azimuth and elevation plus other details from your city location.

Track the satellite on the map from your city or location and see movement details for azimuth, elevation, latitude, longitude, range, height, and movement on the map or in text.







IsCatalogInMostPopularTable: catalog: 41884, numindb: 532
Update: records affected: 1



GetName: 41884 CYGFM05

Hit Count: updated at: Tue, 28 Sep 2021 15:51:17 GMT